Wind_Speed
32 32 32 32 31 29 26 26 21 26 25 22 20 19 18 13 15 17 13 11 6 9 14 16 18 19 20 23 25 26 28 33 33 32 33 32 31 29 26 25 24 24 25 25 23 23 24 22 21
36 34 34 34 33 30 24 24 24 30 21 27 23 22 20 21 21 19 13 10 8 7 13 12 13 14 16 22 24 26 29 33 34 31 36 36 33 31 31 30 27 27 27 26 26 27 25 24 24
38 37 36 37 35 30 17 16 23 24 33 25 23 25 24 25 22 20 13 9 6 10 11 11 12 12 16 20 24 28 32 33 34 35 38 39 35 32 32 32 32 30 30 30 29 30 28 28 27
39 40 39 40 36 32 31 15 22 21 37 31 28 28 26 25 21 23 14 10 10 8 10 10 11 14 20 23 23 29 32 35 36 36 38 36 35 32 31 32 33 32 32 32 32 30 30 26 26
40 41 42 41 37 37 35 27 26 34 31 32 34 31 27 27 28 25 20 11 9 8 7 9 13 18 21 22 27 28 29 33 35 38 37 34 32 33 33 32 33 34 33 32 32 31 29 26 23
40 40 42 42 37 37 38 34 35 38 36 36 36 34 27 33 30 29 24 15 10 9 10 15 18 22 19 21 25 27 32 33 35 36 34 32 32 33 33 33 33 32 33 33 32 31 28 25 22
38 40 41 42 39 36 34 38 40 38 37 38 37 35 31 40 31 33 28 18 13 12 14 17 20 22 22 25 26 30 30 32 33 32 33 32 32 34 33 31 32 33 34 35 33 30 27 24 21
38 40 42 42 40 44 35 39 41 38 40 37 43 40 33 42 36 34 29 21 17 13 18 21 23 25 25 25 26 29 29 31 33 32 34 32 30 32 31 31 32 34 34 35 33 30 26 24 22
38 47 45 40 42 41 38 39 39 38 45 44 48 47 44 47 36 34 31 25 20 20 22 24 27 25 25 26 31 34 36 37 33 34 36 33 32 31 30 31 32 35 35 33 31 29 26 25 23
48 54 55 47 42 45 41 40 38 39 50 50 52 47 43 45 42 39 35 27 23 22 26 29 31 29 28 31 34 35 39 38 36 35 37 36 34 33 33 33 34 37 35 31 29 28 26 25 25
59 56 51 47 44 45 43 42 41 45 47 47 49 50 47 49 47 42 38 29 29 27 31 33 32 31 32 35 37 36 39 39 39 37 38 36 36 36 36 35 37 36 33 30 30 28 27 26 27
57 65 61 53 49 51 46 44 46 48 49 50 49 50 53 52 51 47 38 32 32 30 32 37 36 35 34 37 36 36 39 42 41 39 40 39 37 38 38 36 40 33 32 29 31 29 28 28 29
52 49 56 63 61 58 55 47 49 49 48 50 54 52 58 55 53 50 45 39 35 37 36 39 41 37 37 38 38 39 42 45 43 41 42 39 37 37 38 38 39 36 29 30 30 30 29 28 29
50 54 52 57 66 64 64 54 55 56 50 51 57 61 63 58 54 53 49 43 40 38 42 44 42 40 40 40 40 42 46 46 45 44 45 41 37 37 38 38 37 32 31 31 32 28 31 32 32
53 57 58 59 56 59 66 68 68 57 56 56 55 60 61 56 57 55 52 47 43 42 45 48 45 43 41 41 42 45 48 44 44 42 46 40 37 36 38 37 35 31 31 32 32 31 34 34 37
57 60 62 57 58 57 61 67 63 63 59 59 55 60 56 56 59 55 53 51 46 47 50 49 49 43 41 42 46 48 49 45 42 39 42 38 36 37 36 36 37 32 32 32 30 33 36 37 38
57 59 61 59 56 58 60 64 54 62 65 64 58 58 58 57 57 56 56 55 49 51 52 52 49 44 45 45 49 48 47 45 40 39 41 37 38 36 35 38 37 32 31 30 33 35 38 39 39
60 63 62 61 58 57 59 65 59 55 63 67 68 62 56 58 59 56 60 60 56 56 54 50 47 44 47 47 50 50 50 44 39 41 41 38 38 35 35 39 34 30 29 31 34 36 38 39 40
64 68 70 65 61 54 46 62 62 59 61 68 70 67 68 60 60 59 62 68 59 57 54 50 45 46 46 49 51 53 52 45 40 42 39 40 38 34 38 37 32 29 30 33 34 36 37 38 37
67 69 70 71 69 54 47 57 68 63 64 61 66 73 73 70 61 66 70 65 61 57 54 49 48 48 48 51 54 54 54 47 43 43 38 41 36 34 38 35 31 28 32 34 34 34 35 35 33
69 73 75 73 72 63 70 60 71 70 64 64 62 68 74 72 69 69 70 67 62 58 56 53 52 49 50 56 55 53 50 46 42 38 37 39 33 36 36 33 30 31 34 32 33 33 33 31 28
63 63 67 75 74 66 73 61 72 68 69 67 61 61 64 72 73 76 70 69 68 63 60 55 51 47 53 55 54 48 44 43 36 35 36 35 35 37 34 31 31 32 33 31 32 32 31 29 24
40 42 45 62 71 72 69 57 58 68 69 69 64 59 59 62 64 67 67 66 59 59 58 56 54 49 55 54 49 42 40 32 31 33 34 34 35 34 32 30 32 31 31 30 31 30 27 23 23
37 38 39 42 44 52 67 57 51 55 58 50 52 62 61 59 55 61 70 68 66 63 60 61 51 52 53 49 40 32 28 31 29 33 34 32 32 30 28 30 31 28 29 27 28 28 22 21 21
23 22 28 34 45 54 49 60 57 36 37 41 42 51 56 53 53 49 57 64 61 62 64 60 52 55 49 39 31 27 28 28 29 32 31 31 28 28 28 29 28 27 27 25 26 25 21 21 20
22 22 30 32 33 41 39 57 62 50 27 38 43 52 55 48 44 45 46 51 50 50 52 54 54 51 37 30 28 28 27 26 30 30 29 30 28 28 28 28 27 27 27 25 26 26 20 21 19
18 31 17 31 31 38 39 36 44 57 50 41 29 46 51 45 44 42 45 43 40 39 39 41 44 36 30 29 27 26 24 27 27 27 28 28 29 27 27 27 27 28 28 26 28 24 20 20 19
22 20 21 29 29 27 31 28 38 37 39 42 36 35 45 42 44 42 41 36 38 37 36 35 32 30 29 26 25 23 25 26 26 25 27 28 27 27 26 26 26 28 25 24 26 22 20 19 20
13 20 25 22 28 23 15 14 30 38 37 40 33 37 34 42 43 41 38 36 36 33 32 31 30 29 27 25 24 23 26 26 25 25 27 25 26 27 25 25 26 23 22 24 23 20 18 19 21
7 11 22 24 26 27 20 26 20 36 30 35 44 46 35 39 44 41 40 39 35 35 33 30 29 27 26 25 23 24 26 24 24 25 25 23 27 26 25 26 25 22 21 21 21 17 18 21 19
Wind_Direction
222 226 224 226 224 225 225 227 227 227 226 228 219 213 205 187 227 227 242 278 273 336 339 318 301 301 316 333 333 332 331 332 336 334 340 342 338 335 335 332 332 331 332 329 327 324 320 316 312
219 223 223 226 224 223 226 231 236 236 235 231 224 220 214 213 206 228 247 264 262 340 348 335 319 318 311 322 326 327 328 328 329 331 331 335 336 334 332 330 332 330 329 329 327 322 320 318 316
217 220 222 224 225 220 215 253 234 236 232 240 236 228 223 227 226 232 237 249 273 336 328 318 327 317 323 314 324 325 326 324 326 328 330 331 335 336 332 330 328 328 327 328 325 322 322 322 318
222 219 222 225 222 221 219 223 214 226 239 238 237 240 234 231 234 242 237 260 285 325 328 332 328 322 324 315 315 318 320 322 325 324 327 330 332 336 332 328 323 322 323 322 321 318 315 319 317
229 224 223 223 222 223 223 212 237 221 232 235 239 241 243 236 238 241 243 257 296 311 315 329 324 315 316 310 313 315 317 321 323 323 328 331 332 335 333 330 324 321 320 318 316 318 316 318 315
232 233 229 224 220 225 229 230 228 240 234 237 239 240 244 247 241 246 252 256 286 293 288 308 310 313 313 311 312 316 321 322 322 324 330 333 332 336 331 327 322 318 316 315 317 317 315 312 310
231 234 235 228 223 226 235 237 240 236 235 237 244 239 237 251 242 246 253 261 276 286 290 297 302 308 312 311 309 313 320 322 325 329 331 331 332 333 327 323 319 315 315 315 316 315 312 308 307
232 235 234 235 230 225 222 231 234 233 234 226 229 236 233 248 246 249 256 260 270 279 284 291 298 303 304 307 314 319 320 327 326 328 330 331 333 332 324 319 317 315 313 312 314 311 307 303 306
236 231 234 235 236 235 235 240 239 235 228 225 235 234 230 242 249 251 252 260 266 276 281 287 296 298 305 302 312 317 321 322 323 325 327 329 331 331 318 317 316 314 316 313 309 306 301 302 304
234 234 232 240 242 237 229 236 238 231 233 234 238 241 243 249 250 251 253 258 262 268 272 283 294 295 288 305 306 320 323 317 317 321 322 324 325 326 321 319 319 317 315 309 304 303 300 300 303
240 233 233 232 240 240 228 229 233 227 231 233 241 244 240 240 245 250 255 256 263 261 272 279 290 295 293 297 306 315 319 318 317 318 320 321 321 319 324 319 322 320 312 303 301 301 299 303 303
245 239 242 240 242 242 234 227 230 232 232 226 234 237 241 240 245 249 251 252 254 257 266 280 286 291 293 294 304 310 318 318 316 318 318 319 317 318 322 318 322 317 303 298 299 298 300 304 304
251 249 245 242 244 242 239 231 232 234 237 229 225 233 234 240 243 248 248 252 253 261 267 275 284 287 294 297 304 309 313 314 314 313 317 317 312 316 318 317 320 311 298 297 296 299 303 307 304
253 251 248 247 245 242 243 229 236 228 235 235 234 233 236 240 243 247 251 252 254 260 267 276 283 286 293 296 301 305 310 313 313 313 316 312 308 315 316 317 315 301 301 298 297 300 306 310 307
249 250 251 248 249 247 244 241 232 230 232 237 236 238 240 240 243 246 250 253 256 260 267 276 282 284 291 295 299 302 307 309 307 307 308 306 308 314 312 318 308 299 297 297 299 304 307 308 307
252 251 251 250 254 253 251 246 238 235 233 235 239 241 243 242 242 247 250 252 251 258 266 272 280 286 289 294 297 300 302 305 304 303 303 302 309 311 314 313 304 296 297 297 300 304 306 307 306
255 256 254 251 252 253 250 252 242 235 237 236 233 239 241 241 244 246 250 251 255 258 263 267 274 283 287 291 294 297 300 307 303 302 301 306 308 309 312 309 302 299 298 302 304 302 304 306 305
259 258 255 252 249 256 253 252 244 236 238 236 239 232 240 239 240 245 248 251 252 256 260 265 273 278 281 286 291 295 297 302 300 298 300 304 303 306 306 307 299 298 299 303 300 302 305 305 305
253 253 255 250 247 249 238 251 244 242 239 238 232 237 234 238 239 242 246 249 250 254 258 266 271 273 277 285 291 293 295 296 295 295 298 301 300 308 304 301 296 296 302 298 300 303 305 305 305
255 256 252 251 248 235 241 242 245 242 241 237 240 236 235 233 235 236 244 250 251 255 262 266 269 272 274 281 288 291 292 289 291 293 296 296 300 303 299 295 293 298 298 298 301 303 305 305 302
256 254 252 250 242 240 242 240 241 241 241 239 236 240 240 236 235 237 240 246 253 259 264 264 268 272 274 282 287 287 288 286 288 291 292 293 300 298 296 292 292 297 296 298 301 304 305 303 299
258 254 251 245 238 237 238 244 242 242 244 243 238 240 243 241 238 239 243 248 251 255 259 262 263 269 277 282 286 286 283 283 283 287 292 297 297 294 294 289 292 294 294 301 304 306 304 300 299
263 260 259 248 236 234 228 236 240 238 240 242 242 238 240 243 244 244 243 245 248 250 255 260 266 268 273 282 284 280 279 273 278 286 290 294 294 293 288 287 291 294 295 302 306 305 301 297 301
278 261 257 252 246 236 230 226 235 237 239 242 248 240 236 239 243 240 242 245 248 253 257 256 258 266 271 279 275 271 264 272 279 284 289 291 289 285 282 286 291 293 297 303 304 304 298 295 297
263 263 246 242 236 232 228 226 221 225 229 224 226 233 238 237 241 247 243 242 245 254 254 251 256 261 269 267 259 256 264 273 280 284 287 286 280 279 282 286 291 293 298 298 305 305 298 295 291
251 232 249 237 233 234 233 228 220 201 210 233 232 234 235 237 235 238 238 238 245 252 249 247 248 254 255 247 250 255 265 273 281 285 283 279 276 279 282 287 289 293 295 289 303 305 296 290 290
263 260 241 230 219 222 219 243 231 226 211 220 223 233 230 230 230 232 236 237 241 238 236 238 245 246 237 241 248 259 267 277 279 278 275 275 277 281 286 286 291 294 293 283 294 303 292 286 290
244 239 248 233 250 251 217 205 207 216 214 221 224 231 228 225 225 226 230 229 229 234 238 239 240 231 235 242 251 258 268 271 269 268 272 273 277 286 286 287 291 295 291 283 293 295 284 291 295
277 231 245 226 230 234 235 215 199 222 219 189 196 212 217 219 219 221 220 220 225 229 228 230 225 230 237 244 249 258 263 263 261 265 270 273 285 285 284 287 292 296 287 286 295 286 289 295 300
267 203 243 216 217 226 220 191 171 200 192 198 206 217 214 211 211 218 216 215 214 218 220 222 224 232 237 242 251 257 256 254 255 265 270 281 284 282 286 289 291 290 286 288 297 281 293 300 300
Height
5862 5866 5867 5871 5876 5878 5880 5884 5886 5886 5889 5890 5892 5895 5897 5900 5903 5902 5895 5894 5893 5892 5890 5889 5888 5887 5885 5884 5882 5881 5879 5879 5877 5875 5874 5872 5869 5867 5865 5863 5860 5858 5854 5853 5852 5851 5849 5847 5847
5858 5861 5863 5866 5871 5874 5879 5881 5882 5882 5884 5885 5888 5890 5894 5896 5897 5893 5893 5892 5892 5890 5889 5887 5886 5886 5884 5882 5880 5879 5878 5877 5875 5874 5872 5869 5866 5864 5863 5861 5857 5855 5852 5850 5848 5846 5845 5844 5843
5852 5855 5858 5862 5866 5872 5879 5884 5881 5878 5878 5882 5886 5886 5888 5889 5889 5888 5891 5890 5888 5888 5888 5887 5885 5884 5883 5882 5881 5878 5875 5874 5872 5870 5867 5865 5862 5860 5859 5856 5854 5851 5849 5847 5845 5843 5842 5840 5839
5847 5849 5853 5857 5863 5869 5870 5877 5875 5876 5872 5878 5882 5883 5884 5885 5886 5884 5887 5887 5887 5886 5886 5885 5884 5884 5882 5881 5880 5877 5874 5872 5870 5868 5865 5863 5860 5857 5856 5854 5851 5849 5847 5845 5843 5841 5839 5837 5835
5842 5843 5846 5852 5859 5863 5864 5866 5865 5867 5871 5874 5876 5879 5881 5881 5881 5880 5883 5883 5883 5883 5883 5882 5882 5881 5880 5879 5877 5874 5872 5871 5869 5866 5863 5859 5857 5855 5853 5850 5848 5846 5844 5842 5840 5839 5837 5835 5833
5837 5839 5841 5846 5853 5857 5859 5858 5857 5862 5866 5871 5872 5875 5878 5873 5876 5877 5879 5879 5880 5880 5880 5879 5879 5879 5878 5876 5875 5873 5871 5868 5866 5864 5860 5857 5855 5853 5850 5847 5845 5843 5841 5840 5838 5836 5833 5832 5829
5832 5833 5836 5840 5845 5849 5852 5852 5852 5857 5861 5866 5869 5870 5875 5868 5872 5873 5874 5875 5876 5877 5876 5876 5876 5877 5875 5874 5872 5871 5869 5867 5864 5861 5859 5856 5854 5851 5848 5845 5843 5840 5838 5836 5834 5832 5830 5827 5825
5823 5825 5828 5834 5838 5841 5842 5844 5845 5851 5856 5861 5860 5863 5869 5864 5866 5869 5870 5871 5872 5873 5872 5872 5872 5873 5873 5871 5870 5867 5866 5865 5862 5859 5857 5854 5853 5850 5846 5842 5840 5838 5835 5833 5831 5828 5825 5823 5821
5815 5816 5821 5828 5831 5835 5838 5839 5841 5846 5847 5851 5853 5858 5858 5854 5862 5865 5866 5867 5868 5868 5867 5867 5868 5869 5868 5868 5866 5864 5861 5859 5857 5855 5853 5850 5849 5847 5844 5841 5838 5834 5831 5829 5826 5823 5821 5819 5817
5807 5810 5818 5821 5821 5824 5829 5832 5834 5838 5837 5842 5844 5847 5854 5854 5855 5857 5859 5862 5863 5863 5862 5862 5863 5865 5864 5863 5862 5860 5857 5854 5853 5852 5850 5847 5845 5843 5840 5837 5834 5830 5827 5824 5821 5819 5817 5815 5813
5799 5800 5812 5811 5812 5814 5821 5823 5825 5828 5831 5838 5839 5841 5846 5847 5848 5851 5854 5858 5859 5860 5856 5857 5859 5860 5858 5858 5857 5855 5853 5850 5849 5848 5847 5844 5840 5838 5835 5832 5829 5826 5822 5819 5817 5815 5813 5811 5808
5783 5794 5799 5804 5804 5804 5810 5814 5817 5819 5825 5832 5834 5837 5838 5840 5842 5845 5850 5852 5855 5854 5853 5851 5852 5855 5856 5854 5853 5850 5849 5846 5844 5844 5842 5838 5835 5832 5830 5827 5823 5823 5817 5816 5813 5812 5809 5806 5803
5776 5785 5788 5789 5789 5794 5798 5807 5809 5810 5817 5822 5824 5825 5824 5831 5834 5838 5842 5846 5848 5847 5847 5847 5847 5850 5849 5848 5846 5845 5843 5841 5839 5838 5836 5833 5830 5828 5825 5821 5819 5814 5814 5811 5808 5805 5804 5801 5798
5773 5770 5772 5772 5775 5783 5787 5797 5796 5805 5809 5812 5813 5816 5817 5823 5829 5831 5834 5838 5841 5841 5841 5841 5842 5843 5844 5843 5842 5840 5838 5836 5834 5831 5829 5828 5825 5822 5819 5818 5815 5810 5807 5806 5803 5801 5797 5795 5792
5756 5755 5758 5759 5768 5771 5778 5777 5785 5799 5800 5801 5805 5806 5809 5817 5820 5824 5827 5830 5833 5835 5835 5835 5836 5837 5839 5837 5835 5834 5833 5832 5830 5827 5825 5821 5820 5816 5815 5813 5810 5806 5803 5800 5797 5794 5792 5789 5785
5741 5741 5743 5759 5759 5763 5758 5761 5783 5792 5790 5789 5796 5797 5803 5808 5812 5817 5820 5822 5825 5828 5829 5831 5831 5831 5831 5830 5828 5828 5828 5827 5825 5822 5819 5817 5815 5812 5810 5807 5804 5801 5798 5795 5793 5789 5786 5783 5780
5729 5730 5736 5746 5749 5749 5743 5751 5770 5780 5777 5777 5784 5788 5792 5798 5802 5807 5809 5812 5818 5819 5822 5825 5826 5825 5823 5822 5821 5821 5820 5821 5819 5816 5813 5812 5809 5807 5804 5802 5798 5795 5792 5791 5788 5784 5781 5777 5773
5718 5714 5720 5725 5738 5732 5731 5736 5752 5763 5761 5763 5771 5779 5783 5788 5793 5798 5798 5801 5807 5811 5814 5817 5818 5819 5818 5816 5815 5814 5813 5815 5813 5810 5808 5806 5804 5802 5799 5796 5793 5790 5788 5786 5782 5778 5774 5771 5767
5698 5698 5703 5713 5722 5719 5723 5722 5739 5745 5748 5750 5756 5764 5771 5776 5784 5789 5789 5786 5797 5802 5807 5809 5809 5811 5809 5811 5810 5808 5808 5809 5807 5804 5802 5800 5798 5796 5793 5789 5788 5784 5783 5780 5776 5772 5769 5765 5762
5681 5681 5689 5696 5703 5700 5706 5708 5721 5728 5732 5740 5746 5750 5757 5765 5772 5776 5776 5781 5787 5792 5799 5801 5800 5802 5802 5804 5804 5803 5802 5801 5800 5797 5796 5795 5792 5789 5787 5784 5782 5780 5777 5774 5770 5767 5763 5760 5756
5663 5663 5670 5673 5681 5679 5693 5690 5703 5713 5718 5724 5733 5738 5743 5751 5760 5765 5764 5770 5777 5784 5789 5791 5791 5793 5794 5796 5796 5796 5794 5793 5792 5790 5790 5789 5785 5783 5781 5778 5776 5774 5770 5768 5764 5761 5758 5754 5751
5638 5645 5644 5651 5655 5658 5682 5673 5688 5702 5707 5710 5722 5727 5732 5740 5744 5749 5761 5767 5770 5775 5778 5781 5784 5786 5786 5788 5789 5787 5786 5786 5785 5783 5784 5781 5779 5777 5775 5773 5771 5769 5764 5762 5759 5755 5752 5749 5747
5626 5629 5629 5631 5634 5643 5653 5663 5673 5686 5690 5699 5708 5717 5722 5725 5736 5744 5750 5754 5762 5764 5767 5771 5775 5779 5778 5780 5781 5779 5779 5778 5778 5777 5777 5775 5772 5771 5769 5768 5765 5763 5759 5757 5753 5750 5747 5744 5742
5614 5611 5615 5618 5623 5622 5635 5650 5663 5674 5681 5690 5696 5704 5710 5717 5724 5730 5737 5744 5751 5755 5760 5762 5767 5769 5772 5773 5773 5772 5772 5772 5772 5771 5770 5769 5767 5765 5764 5762 5760 5758 5755 5752 5749 5745 5743 5741 5738
5605 5606 5606 5607 5608 5607 5626 5635 5648 5673 5675 5676 5686 5691 5699 5709 5714 5721 5726 5734 5740 5746 5749 5752 5758 5762 5765 5765 5765 5765 5766 5766 5765 5764 5763 5762 5761 5760 5759 5756 5755 5753 5750 5748 5744 5741 5738 5736 5734
5599 5599 5601 5599 5604 5611 5619 5614 5627 5652 5658 5662 5674 5682 5688 5699 5707 5710 5717 5725 5732 5735 5737 5742 5749 5755 5757 5758 5758 5760 5760 5760 5759 5758 5757 5756 5756 5755 5753 5751 5750 5748 5745 5743 5740 5737 5734 5731 5729
5595 5592 5594 5593 5596 5596 5603 5617 5629 5637 5648 5657 5664 5671 5680 5689 5696 5703 5710 5717 5723 5725 5729 5735 5741 5746 5748 5750 5751 5753 5753 5753 5753 5753 5752 5752 5751 5750 5748 5746 5745 5742 5740 5738 5736 5732 5729 5726 5724
5586 5590 5590 5590 5589 5593 5596 5601 5620 5628 5641 5651 5661 5665 5672 5682 5687 5694 5701 5710 5714 5718 5724 5729 5734 5738 5740 5742 5745 5746 5747 5747 5748 5748 5748 5747 5746 5744 5743 5741 5740 5737 5735 5733 5730 5727 5724 5722 5720
5586 5585 5587 5587 5587 5589 5597 5603 5615 5626 5633 5644 5652 5658 5664 5671 5679 5685 5694 5701 5706 5713 5718 5723 5727 5730 5733 5736 5739 5740 5741 5742 5743 5744 5743 5742 5740 5739 5738 5736 5734 5732 5729 5727 5725 5722 5720 5718 5715
5582 5582 5584 5586 5590 5593 5592 5595 5607 5618 5625 5639 5640 5650 5659 5664 5671 5678 5686 5692 5700 5706 5712 5716 5720 5724 5728 5731 5733 5735 5736 5737 5738 5738 5738 5736 5735 5734 5733 5731 5729 5727 5724 5722 5720 5718 5716 5714 5712